Wind_Speed
27 27 27 28 28 28 26 25 25 25 25 24 24 23 22 22 22 22 21 21 20 20 19 19 19 18 18 17 17 17 16 16 16 15 15 15 15 15 15 15 15 15 15 14 14 15 14 14 14
26 27 27 28 28 27 26 25 25 26 25 25 24 24 24 23 23 23 22 22 22 21 21 21 20 20 19 19 18 18 18 18 18 17 17 17 17 16 16 16 17 17 16 17 17 17 17 17 17
27 27 28 28 28 27 26 26 26 26 26 26 25 25 24 24 23 23 23 23 23 22 22 22 22 21 21 20 20 20 20 20 19 19 19 19 19 19 18 18 18 19 19 19 19 19 19 19 19
27 28 28 28 27 27 27 27 27 26 26 26 25 25 25 24 24 24 24 23 23 23 23 22 22 22 22 22 21 21 21 21 21 21 21 21 21 21 21 21 21 21 21 21 21 21 21 21 21
27 28 28 27 26 26 27 27 27 26 26 25 25 25 25 25 25 24 24 24 23 23 23 22 22 22 22 22 22 22 22 22 22 22 22 23 23 23 23 23 23 23 23 23 23 23 23 23 23
27 27 27 26 26 26 27 27 27 27 26 26 25 25 24 25 25 25 24 24 24 23 23 22 22 22 22 23 23 23 23 23 23 23 24 24 24 24 24 24 24 25 25 25 24 25 25 25 25
28 28 27 26 26 26 26 27 27 27 27 26 26 25 25 25 25 25 25 25 24 24 24 23 23 23 23 24 24 24 24 24 24 24 25 25 25 25 25 25 25 25 26 26 26 26 26 27 27
28 28 27 27 27 27 27 27 27 27 27 27 26 26 26 26 26 26 26 25 25 25 25 25 25 25 25 25 25 25 25 25 25 25 25 26 26 26 26 26 26 27 27 27 28 28 28 28 28
28 28 27 26 27 27 28 28 28 28 27 27 27 27 27 28 28 27 27 27 26 26 26 26 26 26 26 26 26 26 26 25 26 26 26 26 27 27 27 27 28 28 28 29 29 30 30 30 30
28 27 26 27 27 28 28 29 29 28 28 28 27 27 27 28 28 29 29 28 28 28 27 28 27 27 27 27 27 27 26 27 27 27 27 27 28 28 29 29 30 30 30 30 31 31 32 32 32
28 27 26 27 27 28 29 29 29 29 28 28 28 28 27 27 28 29 29 29 29 28 28 28 28 28 28 28 28 28 28 28 28 28 29 29 29 30 30 31 31 31 32 32 33 33 34 34 34
28 27 26 26 27 27 28 29 29 28 28 28 28 28 28 28 28 28 29 29 29 29 29 29 29 29 29 29 29 29 29 29 29 30 30 30 30 31 31 32 32 33 33 34 34 35 35 35 35
29 28 28 27 27 27 28 28 28 28 28 28 28 28 28 28 28 28 28 28 29 29 29 29 30 30 30 30 29 30 30 30 30 30 31 31 31 31 31 32 33 34 35 35 35 36 37 37 37
30 29 29 29 28 28 27 28 28 27 27 27 27 27 27 27 28 28 28 28 29 29 29 29 29 29 29 29 29 29 30 30 30 30 31 31 32 32 32 34 35 35 36 36 37 37 38 39 39
31 31 30 29 28 28 28 28 27 27 28 27 27 27 26 26 27 27 28 28 28 28 28 28 29 29 29 29 29 29 30 30 30 31 31 32 32 33 34 35 36 36 37 38 39 39 40 41 42
32 32 31 29 29 29 29 27 28 28 28 27 27 27 26 26 26 27 28 28 29 29 29 29 29 29 30 30 30 30 31 31 31 32 32 33 34 35 36 37 38 38 38 39 40 41 42 42 43
33 32 31 30 30 30 30 28 28 28 28 28 27 27 27 27 27 27 28 28 29 29 29 29 29 30 30 30 31 31 31 31 32 33 33 35 36 37 38 39 39 40 40 41 42 43 44 44 45
33 32 32 32 31 31 30 29 30 29 29 28 28 28 28 27 27 28 28 28 29 29 29 29 30 31 31 31 31 32 32 33 34 34 35 37 38 39 40 40 41 42 43 44 45 46 47 48 48
35 35 34 33 33 32 32 31 31 31 30 29 29 28 28 28 29 29 28 29 29 29 30 30 31 31 32 33 33 33 34 35 36 36 37 38 40 41 42 42 43 44 45 46 47 48 49 50 51
37 36 35 35 34 34 33 32 32 31 30 30 29 29 29 29 29 29 29 29 29 29 30 31 32 32 33 34 34 35 35 36 37 38 39 41 42 42 43 44 45 45 47 47 49 49 50 52 53
38 37 36 36 36 36 35 34 33 32 31 31 30 30 30 30 30 30 29 30 30 30 31 32 32 33 34 35 36 36 37 38 39 40 41 43 44 45 45 46 47 48 48 49 50 51 53 54 56
40 38 38 38 38 38 37 36 34 33 32 31 31 31 30 31 31 31 31 31 31 32 32 33 33 34 35 36 37 38 39 40 41 42 43 44 45 46 47 48 49 49 50 51 53 55 56 57 58
42 40 40 40 40 40 39 39 35 35 34 32 32 32 31 32 32 32 32 32 33 34 34 34 35 35 36 37 38 40 41 41 43 44 45 46 47 47 48 50 51 52 53 54 55 57 58 59 59
43 42 42 42 42 43 40 40 38 36 34 33 33 33 33 33 33 33 34 34 35 35 35 36 36 37 37 38 40 41 42 43 45 46 47 48 48 49 50 52 53 54 56 57 58 59 59 60 60
45 44 43 44 45 45 41 42 40 37 35 35 35 35 35 35 35 35 34 35 35 36 36 37 37 38 39 40 41 43 44 45 47 48 49 50 51 51 53 54 56 57 58 59 60 60 60 60 61
45 45 45 45 46 45 44 43 41 39 37 36 36 36 36 36 36 36 36 36 36 37 38 38 39 39 41 42 43 44 45 46 48 50 51 52 53 54 55 56 58 59 60 60 61 61 61 62 62
47 47 46 46 46 46 46 44 42 40 38 38 37 37 37 37 37 37 37 38 38 39 39 39 40 41 41 42 44 45 46 48 49 51 53 54 54 55 56 58 59 60 60 61 61 61 62 63 63
48 46 46 46 47 46 47 45 43 41 39 39 38 39 39 39 39 39 39 39 39 40 41 41 42 42 43 44 45 46 47 49 51 52 54 54 55 57 58 59 59 60 61 61 61 62 62 62 62
46 47 47 47 48 47 47 46 43 42 41 40 40 40 39 39 39 39 40 40 41 41 42 43 43 44 45 46 47 48 49 51 52 53 55 56 57 58 59 59 60 60 61 61 61 61 61 61 61
45 46 47 47 47 47 47 47 44 43 42 41 40 40 40 40 41 41 41 41 41 42 43 44 45 45 47 48 49 50 52 53 53 54 55 57 58 59 59 59 59 60 60 60 60 59 59 59 58
Wind_Direction
234 235 235 236 237 237 237 236 236 236 237 238 239 239 240 240 240 243 243 244 244 245 246 247 248 248 249 251 252 253 254 254 256 258 259 260 261 263 263 264 264 264 265 265 266 268 269 269 270
234 235 235 236 236 236 236 235 236 237 238 238 239 239 240 241 241 243 243 244 245 246 247 248 249 250 251 252 253 254 255 256 257 258 259 260 261 263 265 266 265 265 266 267 269 269 269 269 269
235 235 235 236 236 236 236 236 237 238 238 239 240 240 241 241 242 242 243 245 246 247 248 249 250 252 253 253 254 255 256 258 258 259 260 261 262 264 265 266 266 266 266 267 267 268 269 270 270
235 235 236 236 236 235 236 236 237 238 238 239 239 240 241 241 242 242 243 245 246 248 249 250 251 253 254 254 254 255 256 257 258 259 261 262 263 264 265 266 267 267 268 269 269 269 270 271 271
235 236 236 235 235 234 235 235 236 237 237 238 239 239 240 240 241 242 243 245 246 248 249 250 252 253 254 255 255 255 256 258 260 261 262 263 264 265 266 267 268 269 269 270 270 270 270 271 271
234 236 236 235 234 234 234 234 235 236 237 238 239 239 240 240 241 242 243 245 246 248 249 250 252 252 253 254 255 256 258 260 262 263 264 265 265 266 266 268 269 269 270 270 270 271 271 271 272
234 235 235 234 233 233 234 233 234 235 236 237 239 240 240 241 241 242 243 245 246 247 249 251 252 253 254 256 257 259 260 261 263 264 265 266 266 267 267 268 269 269 270 270 271 271 272 272 273
234 235 235 235 233 233 234 234 234 235 236 237 239 241 241 242 242 243 244 246 247 248 249 251 253 255 256 258 260 261 261 262 264 265 266 266 267 268 269 269 270 271 271 271 272 272 272 273 274
234 234 234 234 234 233 234 235 236 236 237 238 240 242 243 244 244 245 246 247 248 249 251 253 255 256 258 260 261 262 263 264 265 266 266 267 268 269 270 271 272 272 272 272 272 273 273 273 274
234 234 234 234 234 234 235 236 237 237 238 239 241 242 243 244 245 246 247 248 250 251 252 254 256 258 260 261 262 263 264 265 266 267 268 269 270 271 271 272 272 273 273 273 273 273 273 273 274
234 234 234 234 234 234 235 236 236 237 238 240 241 243 244 245 246 246 247 249 250 252 254 255 257 258 259 261 262 263 264 265 266 267 268 270 271 271 272 273 274 274 275 274 273 273 273 273 274
233 233 234 233 234 235 235 236 236 237 239 240 241 243 245 246 247 248 248 249 251 252 254 255 257 258 259 260 262 263 264 265 266 267 268 270 271 272 273 274 275 275 275 274 274 273 273 274 273
233 233 234 234 235 236 236 236 237 237 238 240 242 243 245 246 247 249 249 250 251 252 254 256 257 258 259 260 261 262 264 266 267 268 269 271 272 273 274 275 275 275 275 275 275 274 274 274 274
234 234 235 235 236 237 237 237 237 238 239 239 241 242 244 246 247 248 249 249 250 252 254 256 257 257 258 259 260 262 263 265 267 269 270 271 273 274 275 276 276 276 276 276 276 275 274 274 274
234 235 236 236 237 238 238 238 237 237 238 239 240 242 243 245 246 247 247 248 250 252 254 256 257 258 258 259 260 262 264 266 268 269 271 272 273 274 275 277 277 277 277 277 277 277 276 276 276
235 236 237 237 239 239 239 238 238 237 238 239 241 242 243 244 246 247 247 249 251 253 255 256 258 259 259 260 261 263 265 267 269 271 272 273 275 276 277 278 279 278 278 278 278 278 277 277 277
235 236 237 238 239 239 240 237 237 237 238 239 241 243 244 245 247 248 249 250 251 253 255 257 259 260 261 261 262 264 266 268 270 271 273 275 276 278 280 279 280 280 280 279 279 278 278 278 278
235 237 237 238 238 238 238 236 237 237 238 240 241 243 245 246 248 249 250 251 252 254 256 257 259 261 262 263 263 265 267 269 270 272 274 276 277 279 280 280 280 281 281 280 279 279 279 279 279
235 236 237 238 238 238 238 237 238 239 240 241 243 245 246 247 249 250 251 253 254 256 258 259 260 262 263 264 265 266 268 270 272 273 275 277 279 279 280 280 282 282 282 282 281 280 280 280 280
236 237 238 239 240 240 239 238 240 241 242 243 245 246 247 248 250 252 253 255 257 259 260 261 262 263 264 265 267 268 270 272 273 275 276 278 280 280 281 281 282 282 282 282 282 282 282 282 282
237 237 238 240 241 241 241 240 240 242 242 243 245 247 249 250 252 253 255 256 258 260 262 263 264 265 266 267 269 270 271 273 275 276 278 280 281 282 281 282 283 283 283 283 283 283 284 284 284
237 238 239 240 241 242 242 242 240 243 243 244 246 248 250 252 253 255 256 258 259 261 262 264 266 267 268 270 271 271 272 274 276 278 280 281 282 282 282 283 283 283 284 284 285 285 286 286 286
238 238 239 241 242 243 242 245 241 243 245 246 247 248 250 253 254 256 258 259 260 262 263 265 267 269 270 272 273 273 274 275 277 279 281 282 283 283 283 284 284 284 285 286 287 287 287 287 287
237 238 240 241 243 244 243 246 244 243 246 248 249 250 251 253 255 257 258 260 261 263 265 267 269 270 272 274 274 275 276 277 279 281 282 283 283 283 284 284 285 286 286 287 288 288 288 288 287
237 238 240 242 243 245 245 247 247 245 246 248 250 252 253 254 256 257 259 261 263 265 266 268 270 271 273 275 276 277 278 279 280 281 282 283 284 284 284 285 286 287 287 288 288 288 288 288 288
237 238 240 243 245 246 246 247 248 248 248 249 251 253 254 255 257 258 260 262 264 265 267 269 270 272 274 276 277 278 279 280 281 282 283 284 285 285 285 286 287 287 287 288 288 287 288 288 289
236 237 239 243 245 248 248 248 249 250 250 251 252 253 255 256 257 258 260 262 264 266 268 269 271 273 275 277 278 279 280 281 283 284 285 286 287 287 287 287 287 288 288 287 287 287 288 289 289
237 238 239 241 244 247 249 250 251 251 252 253 254 255 256 257 258 260 261 262 264 266 268 270 272 274 275 277 279 280 282 283 284 285 286 287 287 287 288 288 288 288 288 288 287 287 288 288 289
237 238 239 241 243 246 249 251 252 254 254 255 255 256 257 258 259 261 262 264 265 267 268 270 272 274 275 277 279 281 282 284 285 286 287 287 288 289 289 289 289 289 289 288 288 289 288 288 288
237 238 239 241 244 246 249 252 253 255 256 257 257 258 258 259 261 262 263 265 266 267 269 270 272 274 276 278 280 282 284 285 286 287 288 288 289 289 290 290 289 290 289 290 289 289 289 289 288
Height
5817 5819 5821 5823 5826 5828 5830 5832 5833 5835 5836 5838 5840 5841 5843 5844 5846 5849 5848 5848 5849 5850 5851 5851 5852 5853 5854 5855 5855 5856 5856 5857 5857 5857 5858 5858 5858 5858 5858 5858 5858 5857 5857 5856 5856 5856 5856 5856 5855
5813 5815 5817 5819 5821 5823 5826 5828 5829 5830 5832 5833 5835 5837 5838 5839 5841 5843 5843 5844 5845 5846 5847 5848 5849 5850 5851 5852 5852 5853 5853 5854 5854 5854 5855 5855 5855 5855 5855 5855 5855 5855 5854 5854 5854 5853 5853 5853 5852
5808 5810 5813 5814 5816 5820 5822 5823 5824 5826 5827 5829 5831 5832 5834 5836 5837 5838 5839 5840 5842 5843 5844 5845 5846 5847 5848 5848 5849 5850 5850 5850 5851 5851 5851 5851 5852 5852 5852 5851 5851 5851 5851 5851 5850 5850 5850 5849 5849
5804 5806 5808 5810 5812 5815 5817 5819 5820 5821 5823 5825 5826 5828 5830 5832 5833 5834 5835 5836 5838 5839 5840 5841 5842 5843 5844 5844 5845 5846 5846 5846 5847 5847 5847 5848 5848 5848 5848 5848 5848 5847 5847 5847 5847 5846 5846 5845 5845
5799 5801 5803 5805 5808 5810 5811 5813 5815 5817 5818 5820 5822 5824 5825 5827 5828 5830 5831 5832 5834 5835 5836 5837 5838 5839 5840 5840 5841 5842 5842 5842 5843 5843 5843 5844 5844 5844 5844 5844 5843 5843 5843 5843 5842 5842 5842 5841 5841
5794 5796 5799 5801 5803 5805 5806 5808 5810 5812 5814 5815 5817 5819 5821 5822 5824 5825 5827 5828 5829 5831 5832 5833 5834 5835 5836 5836 5837 5837 5838 5838 5838 5839 5839 5839 5839 5839 5839 5839 5839 5839 5838 5838 5838 5837 5837 5836 5836
5790 5791 5793 5796 5798 5800 5802 5803 5805 5807 5809 5811 5812 5814 5816 5817 5819 5821 5822 5824 5825 5826 5827 5828 5829 5830 5831 5832 5832 5833 5833 5834 5834 5834 5834 5834 5834 5834 5834 5834 5834 5834 5833 5833 5833 5832 5832 5831 5831
5784 5787 5788 5791 5793 5795 5797 5798 5800 5802 5804 5806 5808 5809 5811 5813 5814 5816 5817 5819 5820 5822 5823 5824 5824 5825 5826 5827 5827 5828 5829 5829 5829 5829 5829 5829 5829 5829 5829 5829 5829 5828 5828 5828 5827 5827 5826 5826 5825
5778 5781 5783 5786 5788 5790 5791 5793 5795 5797 5799 5801 5802 5804 5806 5807 5809 5811 5812 5814 5815 5817 5818 5819 5820 5820 5821 5822 5822 5823 5823 5824 5824 5824 5824 5824 5824 5824 5824 5823 5823 5823 5822 5822 5821 5821 5820 5820 5819
5772 5775 5779 5781 5782 5784 5785 5787 5790 5792 5794 5795 5797 5799 5800 5802 5803 5805 5807 5808 5810 5811 5812 5813 5814 5815 5816 5816 5817 5817 5818 5818 5818 5818 5819 5818 5818 5818 5818 5818 5817 5817 5816 5816 5815 5814 5814 5813 5812
5767 5770 5773 5774 5776 5778 5779 5782 5784 5786 5788 5790 5792 5793 5795 5796 5798 5799 5801 5803 5804 5806 5807 5808 5809 5809 5810 5811 5811 5812 5812 5812 5812 5813 5813 5812 5812 5812 5812 5811 5811 5810 5809 5809 5808 5807 5806 5806 5805
5762 5764 5766 5768 5770 5772 5774 5776 5778 5780 5783 5784 5786 5787 5789 5791 5792 5794 5795 5797 5798 5800 5801 5802 5803 5803 5804 5805 5805 5806 5806 5806 5806 5806 5806 5806 5806 5805 5805 5804 5804 5803 5802 5801 5800 5800 5799 5798 5797
5756 5758 5760 5762 5764 5766 5768 5770 5772 5775 5777 5778 5780 5782 5784 5785 5786 5788 5789 5791 5792 5793 5794 5795 5796 5797 5798 5799 5799 5799 5800 5800 5800 5800 5800 5799 5799 5799 5798 5797 5796 5795 5794 5793 5793 5792 5791 5790 5789
5750 5752 5754 5756 5758 5760 5762 5764 5767 5769 5771 5773 5774 5776 5778 5779 5781 5782 5783 5785 5786 5787 5788 5789 5790 5791 5792 5792 5793 5793 5793 5793 5793 5793 5793 5792 5792 5791 5791 5790 5788 5787 5786 5785 5784 5783 5782 5781 5780
5743 5746 5748 5750 5752 5755 5757 5759 5762 5763 5765 5767 5769 5771 5772 5774 5775 5776 5777 5778 5780 5781 5782 5783 5784 5784 5785 5785 5786 5786 5786 5786 5786 5786 5785 5785 5784 5783 5783 5781 5780 5779 5778 5776 5775 5774 5773 5772 5770
5736 5739 5742 5745 5746 5748 5751 5754 5756 5757 5759 5761 5763 5765 5766 5768 5769 5770 5771 5772 5773 5774 5775 5776 5777 5778 5778 5779 5779 5779 5779 5779 5779 5778 5778 5777 5776 5775 5774 5773 5771 5770 5768 5767 5766 5764 5763 5761 5760
5729 5732 5735 5738 5740 5741 5744 5747 5749 5751 5753 5755 5757 5758 5760 5762 5763 5764 5765 5766 5767 5768 5769 5769 5770 5770 5771 5771 5772 5772 5772 5772 5771 5771 5770 5769 5768 5767 5765 5764 5762 5760 5759 5757 5756 5754 5752 5751 5749
5723 5726 5728 5730 5732 5735 5737 5740 5742 5744 5746 5748 5750 5752 5754 5755 5756 5757 5758 5759 5760 5761 5762 5762 5763 5763 5764 5764 5764 5764 5764 5764 5763 5763 5762 5761 5759 5758 5756 5754 5752 5751 5749 5747 5745 5743 5741 5739 5738
5714 5717 5720 5723 5725 5728 5730 5733 5735 5737 5739 5742 5744 5746 5747 5748 5749 5750 5751 5752 5753 5754 5755 5755 5755 5756 5756 5756 5756 5757 5756 5756 5755 5754 5753 5751 5750 5748 5746 5744 5742 5740 5738 5736 5734 5732 5730 5727 5725
5706 5709 5713 5715 5717 5720 5723 5726 5728 5730 5733 5735 5737 5739 5740 5741 5742 5744 5745 5746 5746 5747 5747 5748 5748 5748 5748 5748 5748 5748 5748 5747 5746 5745 5744 5742 5740 5738 5736 5734 5731 5729 5727 5724 5722 5720 5717 5715 5712
5697 5702 5705 5707 5709 5711 5715 5718 5721 5723 5726 5728 5730 5732 5733 5734 5735 5736 5738 5739 5739 5740 5740 5740 5740 5740 5740 5739 5739 5739 5739 5738 5737 5736 5734 5732 5730 5727 5725 5722 5720 5717 5715 5712 5710 5707 5704 5702 5699
5689 5693 5695 5698 5700 5703 5707 5709 5714 5716 5718 5721 5723 5724 5726 5727 5728 5729 5730 5731 5732 5732 5732 5732 5732 5731 5731 5731 5730 5730 5729 5728 5727 5726 5724 5721 5719 5716 5714 5711 5708 5705 5703 5700 5697 5694 5691 5687 5684
5679 5683 5686 5689 5691 5694 5698 5700 5706 5708 5710 5713 5715 5717 5718 5719 5720 5721 5722 5723 5723 5723 5724 5723 5723 5723 5722 5722 5721 5720 5719 5718 5717 5715 5713 5710 5708 5705 5702 5699 5696 5693 5690 5687 5684 5680 5676 5672 5669
5669 5673 5676 5678 5680 5684 5690 5691 5696 5700 5703 5705 5707 5709 5710 5711 5712 5713 5714 5714 5715 5715 5715 5715 5715 5714 5713 5712 5711 5710 5709 5708 5706 5704 5701 5699 5696 5693 5690 5687 5684 5680 5677 5673 5670 5666 5662 5658 5654
5659 5664 5667 5668 5670 5675 5680 5681 5687 5692 5695 5696 5698 5700 5701 5702 5703 5704 5705 5706 5706 5707 5707 5706 5705 5705 5704 5703 5701 5700 5699 5697 5695 5692 5689 5687 5684 5680 5677 5673 5670 5666 5663 5659 5655 5651 5647 5643 5639
5649 5653 5658 5660 5662 5666 5669 5671 5678 5682 5684 5687 5689 5690 5692 5693 5694 5695 5696 5697 5697 5697 5697 5696 5696 5695 5694 5692 5691 5689 5687 5685 5683 5680 5677 5674 5670 5667 5663 5659 5655 5651 5648 5644 5640 5636 5632 5628 5623
5637 5641 5647 5650 5651 5655 5657 5662 5667 5671 5674 5677 5679 5680 5682 5683 5684 5685 5686 5687 5687 5687 5687 5686 5686 5685 5683 5682 5680 5678 5676 5673 5671 5668 5664 5660 5656 5652 5648 5644 5640 5636 5632 5628 5624 5620 5616 5612 5607
5627 5631 5636 5638 5641 5644 5648 5652 5657 5661 5663 5666 5668 5670 5671 5673 5674 5675 5676 5676 5677 5677 5676 5676 5675 5674 5672 5671 5669 5667 5664 5661 5658 5655 5651 5647 5643 5638 5634 5629 5625 5621 5616 5612 5608 5604 5600 5596 5591
5617 5621 5624 5628 5631 5636 5639 5644 5647 5650 5653 5655 5657 5659 5661 5662 5663 5664 5665 5666 5666 5666 5665 5665 5664 5662 5661 5659 5657 5655 5652 5649 5645 5641 5637 5633 5629 5624 5619 5614 5610 5605 5601 5596 5592 5588 5584 5580 5575
5605 5610 5614 5619 5622 5626 5630 5635 5636 5639 5641 5644 5646 5648 5650 5651 5652 5653 5654 5655 5655 5655 5654 5653 5652 5651 5649 5647 5645 5642 5639 5636 5632 5628 5623 5619 5614 5609 5604 5599 5595 5590 5586 5581 5576 5573 5568 5564 5560